Theta_e
309 309 310 310 310 310 310 310 310 310 311 312 313 314 315 316 316 317 316 315 315 316 316 320 319 319 320 319 322 325 319 323 331 331 332 336 336 339 338 339 340 339 339 342 344
309 309 310 310 310 310 310 310 310 310 311 312 314 315 315 316 318 318 316 315 315 317 317 318 318 318 320 321 322 322 318 321 325 329 329 334 337 337 339 339 342 340 338 343 341
309 309 309 310 310 310 310 310 310 311 312 314 314 315 315 316 319 322 318 316 318 318 318 318 318 321 321 321 320 319 317 318 322 331 333 335 336 338 338 338 342 342 340 342 340
309 309 310 310 310 310 310 311 311 311 313 314 314 315 315 316 318 322 322 320 320 319 317 318 321 322 320 320 320 320 320 322 327 330 329 331 335 340 336 338 342 332 331 339 338
310 310 310 310 310 310 311 311 311 312 314 314 315 315 315 316 321 320 320 321 318 318 318 319 322 322 321 320 319 319 320 321 328 332 329 332 335 339 339 338 340 337 337 340 336
310 310 310 310 310 310 311 311 311 312 314 314 315 314 314 315 321 320 319 318 318 319 319 320 323 322 321 320 320 321 320 322 322 329 328 330 330 339 340 339 339 341 341 342 339
310 310 310 309 310 311 311 311 312 313 314 314 314 314 316 322 324 322 321 323 322 322 322 323 323 323 323 319 320 320 320 317 320 326 326 330 329 329 338 340 341 343 343 343 343
309 309 309 309 310 311 311 311 312 314 315 315 315 315 320 324 323 323 323 323 322 322 322 323 323 322 322 321 320 318 316 318 320 324 326 327 326 327 333 340 342 343 343 343 342
310 310 310 310 311 311 311 312 313 314 315 315 315 316 321 323 323 322 323 323 323 322 322 322 322 322 320 317 318 316 321 321 322 320 326 322 324 324 337 342 341 342 342 342 340
310 310 310 310 311 311 311 312 314 315 316 315 316 319 322 321 322 323 323 323 323 323 323 323 322 316 313 315 321 323 323 322 321 320 318 318 319 319 336 340 337 339 341 340 340
310 311 311 311 311 311 312 314 315 317 321 322 323 323 322 321 322 323 323 323 323 322 317 320 318 320 319 318 319 321 323 324 323 321 318 320 322 322 330 335 336 338 340 341 340
310 311 311 311 311 311 312 314 319 319 319 322 324 323 322 323 322 323 323 322 322 319 319 317 320 321 318 320 321 322 322 322 321 321 320 324 323 324 331 334 335 336 338 340 340
310 311 311 311 311 312 313 318 318 320 319 322 323 322 322 323 323 323 323 322 321 320 320 319 321 322 322 322 323 323 323 324 324 321 319 322 325 321 326 333 335 336 337 337 339
311 311 311 311 313 316 322 322 323 323 314 318 322 323 323 324 322 323 323 323 322 323 320 321 321 322 323 324 321 325 323 324 324 322 322 318 326 322 321 328 332 335 335 335 335
315 311 311 315 322 322 321 322 323 323 315 319 322 323 324 323 322 323 323 324 322 323 322 324 323 323 323 324 323 325 321 322 321 319 319 318 322 321 322 329 329 332 334 334 334
315 315 314 319 322 321 321 322 323 316 321 321 323 321 320 321 322 324 324 324 323 323 323 323 323 323 323 322 322 321 321 317 316 315 319 318 321 322 322 323 323 324 330 333 334
315 316 316 320 322 321 321 322 316 318 318 322 321 320 320 320 321 324 323 322 322 325 325 323 323 324 324 324 321 319 317 318 319 320 321 317 321 320 319 320 321 324 329 331 332
315 316 316 318 321 320 322 317 319 319 321 323 324 320 320 320 320 323 323 322 322 324 324 323 326 326 325 324 324 320 319 319 325 322 320 319 324 321 320 321 322 325 329 330 328
315 316 316 316 320 320 321 316 316 319 324 325 323 320 319 324 319 323 323 322 322 323 327 326 328 325 324 323 324 324 322 318 318 318 320 319 321 320 321 321 321 326 330 328 329
314 316 318 317 319 320 316 316 320 322 323 322 325 325 324 328 321 321 322 324 326 323 324 325 328 326 328 325 323 324 318 323 319 326 327 322 322 322 322 321 319 321 325 327 328
314 318 324 317 317 319 314 316 320 323 321 320 323 325 329 327 326 321 321 327 328 324 324 322 323 325 325 324 326 324 322 318 317 319 323 323 320 317 319 319 318 322 324 325 326
312 316 321 318 318 314 316 318 320 320 322 323 322 324 325 325 331 330 329 327 330 325 326 323 319 323 325 323 322 323 321 317 321 321 319 318 320 317 317 319 320 321 323 324 323
311 315 322 319 314 314 316 319 321 322 324 325 323 323 325 326 328 330 328 330 328 328 327 323 321 322 323 321 323 325 321 316 314 314 319 320 321 318 320 319 320 321 322 321 321
312 311 321 322 319 316 320 321 321 322 324 324 323 324 324 325 324 329 328 327 327 327 327 324 319 321 323 321 321 324 324 320 318 319 319 319 319 319 321 321 321 322 321 321 321
313 316 319 318 321 320 320 321 322 323 323 324 321 322 323 325 327 329 328 326 325 326 326 321 326 326 323 325 325 325 325 324 321 320 322 321 321 320 317 319 322 321 320 321 321
312 320 322 318 320 321 320 323 323 322 322 324 325 324 323 324 324 328 327 326 326 325 324 318 325 324 324 325 326 326 325 324 323 321 320 322 322 318 321 320 320 320 321 321 320
316 320 322 318 317 316 318 318 319 319 320 324 325 325 326 327 327 327 327 325 324 324 323 321 322 320 324 326 324 323 326 325 323 322 322 323 320 321 320 319 320 322 322 321 321
Wind_Speed
9 8 7 7 7 8 9 9 8 7 6 6 8 10 14 16 16 17 20 14 9 15 13 15 12 10 10 4 2 3 4 1 4 5 3 17 7 14 13 8 14 16 8 23 21
9 8 8 7 7 8 8 8 7 6 5 5 8 12 17 19 17 6 2 8 12 10 7 5 4 1 2 2 4 4 4 8 7 7 7 22 10 23 7 19 9 14 13 27 22
9 8 7 7 7 7 7 7 5 5 4 5 10 14 18 20 9 5 4 9 11 8 6 4 4 4 3 1 3 4 5 5 6 19 18 22 14 21 15 6 17 26 31 30 27
8 8 6 7 7 6 7 6 4 4 4 6 11 15 19 11 1 4 3 5 4 6 6 5 4 1 2 2 2 2 12 5 4 15 18 18 19 9 26 17 24 27 32 33 32
8 7 7 7 7 6 7 5 4 5 5 7 12 16 19 11 3 3 6 8 8 8 6 5 5 4 1 3 3 4 4 3 2 16 20 21 21 12 28 12 26 32 33 34 31
8 8 7 7 7 6 6 5 4 5 6 8 12 16 20 5 6 4 4 7 7 5 3 4 5 6 1 3 2 4 7 2 6 13 13 12 7 14 23 12 32 35 36 33 30
8 8 7 7 6 6 5 4 4 5 6 9 13 17 16 1 4 3 1 1 1 3 4 9 8 5 8 4 6 3 2 8 7 6 4 18 3 10 19 22 33 34 35 34 31
7 7 7 6 6 5 4 4 5 6 7 9 12 15 7 4 5 4 3 4 6 7 8 5 6 5 2 8 6 5 6 4 4 3 6 9 8 12 20 30 30 33 35 33 32
5 5 6 5 5 4 4 4 6 6 8 10 11 8 4 6 8 5 7 9 8 9 8 3 4 4 4 4 5 8 3 4 4 6 4 2 1 6 24 30 29 32 33 33 32
3 3 4 4 4 4 3 4 6 7 9 9 8 5 1 8 10 5 6 5 8 7 5 7 4 4 4 5 2 1 3 3 3 6 7 5 4 6 15 17 9 21 30 31 31
1 2 3 4 4 3 3 3 5 4 5 6 9 12 9 12 7 2 5 5 6 8 5 6 6 1 4 4 4 6 3 2 3 4 5 4 4 7 1 7 11 22 26 28 30
1 1 3 3 3 3 3 2 5 5 6 6 11 14 11 10 6 3 5 2 4 2 2 6 1 3 3 6 7 5 2 3 4 5 6 2 7 5 5 0 7 16 23 27 28
4 0 2 3 2 0 4 5 3 12 1 5 6 7 3 3 2 5 1 2 2 1 0 4 4 1 6 5 6 1 4 1 3 4 6 4 7 7 3 4 5 13 20 22 26
8 2 1 2 3 6 5 8 8 2 5 5 3 2 5 2 3 3 4 3 1 2 6 2 4 6 5 3 4 1 2 2 3 4 2 3 2 4 5 5 3 5 12 16 19
9 4 1 5 7 7 6 7 2 4 3 4 3 2 4 5 2 1 6 5 4 2 4 1 4 5 6 1 3 2 3 3 3 4 4 8 5 5 3 3 5 7 11 13 15
8 5 2 5 3 6 10 3 5 6 2 5 2 3 4 1 1 2 2 3 2 5 5 2 1 2 4 2 3 2 4 7 4 4 4 5 3 3 4 6 3 7 11 12 12
8 5 4 2 3 8 3 6 5 4 5 6 1 2 2 3 2 2 1 3 3 4 5 6 4 4 2 4 6 7 7 4 6 6 3 5 3 7 5 4 6 10 11 13 13
8 4 3 2 2 6 5 5 2 2 5 5 3 1 5 4 2 2 3 1 1 5 4 4 4 1 2 2 5 4 5 5 1 1 5 5 0 5 2 3 6 10 11 12 13
7 3 4 3 1 4 3 4 4 4 3 8 6 3 1 2 1 2 4 3 6 6 6 4 2 3 4 2 3 2 4 4 6 2 2 3 5 6 0 2 2 9 12 13 9
8 2 4 7 5 2 5 3 3 3 5 4 2 0 3 1 2 5 4 2 3 4 1 7 3 2 2 1 10 3 5 4 3 1 3 4 4 5 5 8 7 12 17 12 12
7 1 2 10 10 4 4 5 4 5 7 3 3 4 3 1 1 2 8 1 1 2 6 4 4 4 1 4 1 2 2 6 4 4 5 1 5 7 9 10 11 17 11 11 14
4 3 4 14 5 3 4 5 2 4 5 6 2 2 1 1 2 2 4 1 6 2 4 1 5 3 1 2 3 2 3 4 5 4 1 3 7 4 7 14 17 12 11 12 9
7 1 6 10 4 0 2 1 2 2 4 4 3 1 3 3 2 0 2 1 3 3 6 5 3 3 7 6 4 5 3 5 5 3 4 4 6 3 7 2 7 12 14 12 10
4 2 3 3 4 7 3 1 3 5 5 4 2 3 3 6 5 2 2 6 4 6 7 5 3 6 6 5 3 2 1 2 5 3 3 6 7 7 4 2 7 11 14 10 10
5 2 2 0 3 4 3 2 2 3 2 4 4 1 3 2 2 2 2 4 6 3 4 4 4 3 2 1 2 1 2 1 4 5 5 5 4 7 7 9 16 9 6 8 11
3 2 2 2 1 3 2 2 2 3 3 3 3 3 3 5 6 6 4 1 2 4 3 4 2 2 1 1 2 1 2 4 3 0 5 3 5 7 4 6 3 5 9 15 14
2 1 2 3 2 3 3 2 3 1 3 2 2 4 4 4 4 2 5 7 3 4 2 3 5 3 3 2 2 4 3 3 3 4 3 3 5 6 4 2 3 5 12 15 12
Wind_Direction
237 245 250 258 265 269 274 278 280 284 290 303 316 320 318 313 307 294 274 261 241 222 231 239 254 273 284 301 198 159 72 244 240 164 217 165 143 172 169 165 184 196 184 159 159
241 246 249 255 263 267 272 275 274 282 292 310 318 323 323 324 327 23 331 191 176 183 195 196 185 353 175 176 186 132 129 219 210 191 184 178 145 155 160 168 239 197 170 163 172
241 241 246 256 259 265 270 269 273 279 288 306 319 328 327 332 331 36 62 139 160 169 162 143 115 127 162 248 198 170 206 205 241 209 199 167 147 167 151 210 221 182 165 172 182
237 241 242 251 259 263 267 266 264 270 280 312 323 329 332 337 195 4 138 177 168 169 156 140 117 131 74 322 209 273 245 243 280 195 172 175 163 168 172 194 213 189 179 178 189
236 240 244 253 256 260 262 263 259 261 277 317 324 331 340 324 358 32 153 180 186 172 155 145 77 52 29 242 257 214 264 164 207 192 186 171 177 169 205 234 188 186 184 189 191
239 241 246 256 254 254 257 258 250 249 285 316 324 328 332 302 32 59 105 146 152 158 141 73 5 336 227 231 207 291 292 75 118 197 166 147 142 161 222 213 180 187 190 194 196
241 246 247 251 251 245 255 254 244 252 288 314 323 325 318 307 9 353 39 139 260 307 333 357 337 332 319 316 339 288 347 22 15 147 136 138 73 223 206 194 186 191 193 197 201
241 243 246 245 245 248 258 248 236 256 291 311 320 320 269 337 336 340 329 354 325 337 344 7 353 347 346 324 358 46 53 61 315 55 159 147 246 240 199 187 192 195 197 200 204
244 237 240 237 242 251 250 236 237 268 295 307 314 318 284 345 12 5 1 354 18 43 62 37 37 40 18 46 8 13 50 19 333 21 141 87 153 291 195 187 191 196 202 202 206
247 236 231 229 238 243 231 218 250 277 287 299 297 311 353 337 357 334 5 20 27 38 49 29 39 62 28 60 185 222 67 20 52 346 45 48 51 346 196 199 191 195 205 209 210
222 221 222 219 219 210 203 207 284 279 292 260 287 284 315 329 335 80 353 352 10 44 42 15 51 332 228 198 116 96 83 90 310 0 77 38 76 342 329 151 168 205 210 216 220
26 201 213 214 207 211 191 81 77 35 315 279 261 271 303 329 331 324 350 72 61 46 14 15 284 279 135 105 97 66 41 343 298 11 88 20 39 77 41 11 209 212 217 226 234
23 348 200 200 212 182 103 64 329 317 337 292 252 274 299 345 298 287 144 112 96 328 335 156 240 97 113 90 90 74 135 226 224 19 46 41 7 359 62 90 222 228 229 236 239
19 32 187 162 95 119 103 348 306 260 66 286 242 269 224 184 278 293 197 161 70 222 141 206 317 121 105 86 105 15 262 268 267 70 184 42 230 327 345 355 331 225 227 233 237
9 18 170 132 107 88 354 326 137 134 96 277 231 233 205 186 321 42 173 161 185 125 94 302 54 68 75 319 158 199 45 32 60 93 87 352 80 269 4 334 275 253 234 233 237
4 12 91 164 117 27 355 122 131 44 253 325 237 174 121 154 276 107 127 127 107 77 32 56 69 66 136 76 52 123 83 43 51 67 41 310 108 287 182 210 243 253 236 228 224
356 7 123 194 110 4 35 141 43 115 338 331 344 117 124 197 238 173 104 37 141 81 22 8 351 327 129 75 19 52 53 3 11 13 232 334 46 233 265 257 222 227 219 205 211
354 17 165 201 345 7 128 55 84 277 263 304 354 65 161 181 246 88 80 55 340 86 96 123 339 28 2 161 156 55 115 138 216 263 274 320 321 277 262 254 254 240 221 210 224
351 15 118 179 167 12 146 70 216 219 302 323 334 101 58 56 172 117 159 197 219 178 128 136 260 320 43 91 128 149 58 160 104 14 39 286 301 327 28 255 229 219 221 225 219
344 2 146 162 159 22 78 203 245 228 332 350 335 214 148 109 167 145 173 224 241 194 133 197 100 63 312 77 42 104 147 57 18 138 282 299 277 241 246 234 244 242 230 226 215
339 123 91 164 151 80 133 221 266 294 340 336 316 357 76 78 89 180 202 308 23 102 84 123 102 283 17 21 195 21 32 51 112 122 172 238 266 219 225 217 211 224 219 213 218
348 61 141 159 76 79 146 195 316 313 320 264 226 250 105 110 48 144 188 300 344 169 100 93 123 109 205 315 268 100 95 111 107 275 126 158 271 259 256 255 222 218 210 215 218
351 17 172 172 121 335 254 270 275 301 278 323 282 286 52 55 89 194 126 12 20 86 151 180 38 58 354 354 357 64 56 106 105 86 208 138 269 324 339 337 210 207 211 229 238
0 25 79 150 98 129 113 355 292 287 258 265 275 3 65 41 10 76 51 6 40 86 99 105 102 145 186 201 175 114 12 102 125 125 206 229 283 306 306 250 204 213 221 225 227
10 40 55 344 20 97 138 147 249 297 258 346 29 62 151 79 37 21 46 16 39 50 49 93 110 135 161 126 129 200 319 10 210 217 177 268 229 278 254 220 220 214 212 224 223
22 27 37 56 16 118 91 144 193 271 219 314 118 239 155 161 185 196 137 209 212 27 63 7 143 114 125 57 9 269 324 291 228 301 261 273 269 217 300 254 246 245 246 233 228
352 5 357 0 42 93 201 226 226 286 249 241 226 131 167 197 118 89 166 116 99 136 101 77 129 95 238 334 34 349 227 244 270 226 213 238 262 339 355 346 256 241 235 246 253